MSR985 HECA-KJFK

Flight info

Callsign MSR985
Flight time N/A
Altitude 34000
Route CVO L617 NABSI M872 METRU DCT KOR DCT IVMEP DCT TRO DCT ARKIL/N0477F360 DCT MALOT/M083F360 DCT 54N020W 54N030W 54N040W 53N050W DCT RIKAL/N0489F380 N572A TOPPS DCT ENE PARCH4
Aircraft B77W/H-SDE1E2E3FGHIJ2J3J4J5M1RWXY/LB1D1

Departure

Time 2026-05-04 21:04
Airport Cairo International Airport (HECA)

Arrival

Time N/A
Airport John F. Kennedy International Airport (KJFK)
Time Latitude Longitude Altitude Speed Heading
2026-05-04 20:30 30.10918 31.39828 379 ft 0 kts 75°
2026-05-04 20:34 30.10919 31.39833 379 ft 0 kts 75°
2026-05-04 20:48 30.10914 31.39815 379 ft 4 kts 58°
2026-05-04 20:48 30.10901 31.39791 379 ft 3 kts 65°
2026-05-04 20:49 30.10896 31.39766 379 ft 4 kts 118°
2026-05-04 20:49 30.10914 31.39746 379 ft 4 kts 155°
2026-05-04 20:49 30.10940 31.39735 379 ft 4 kts 165°
2026-05-04 20:49 30.10946 31.39734 379 ft 0 kts 165°
2026-05-04 20:53 30.10928 31.39739 379 ft 5 kts 165°
2026-05-04 20:53 30.10891 31.39750 379 ft 6 kts 165°
2026-05-04 20:54 30.10853 31.39761 379 ft 6 kts 165°
2026-05-04 20:54 30.10816 31.39773 379 ft 6 kts 165°
2026-05-04 20:54 30.10779 31.39784 379 ft 6 kts 165°
2026-05-04 20:54 30.10741 31.39795 379 ft 6 kts 165°
2026-05-04 20:55 30.10703 31.39807 379 ft 6 kts 165°
2026-05-04 20:55 30.10666 31.39818 379 ft 6 kts 165°
2026-05-04 20:55 30.10629 31.39829 379 ft 6 kts 165°
2026-05-04 20:55 30.10591 31.39841 379 ft 6 kts 165°
2026-05-04 20:56 30.10554 31.39852 379 ft 6 kts 165°
2026-05-04 20:56 30.10516 31.39863 379 ft 6 kts 165°
2026-05-04 20:56 30.10479 31.39875 379 ft 6 kts 166°
2026-05-04 20:56 30.10440 31.39874 379 ft 6 kts 191°
2026-05-04 20:57 30.10406 31.39853 379 ft 6 kts 219°
2026-05-04 20:57 30.10380 31.39820 379 ft 6 kts 229°
2026-05-04 20:57 30.10354 31.39786 379 ft 6 kts 229°
2026-05-04 20:57 30.10328 31.39752 379 ft 6 kts 229°
2026-05-04 20:58 30.10303 31.39719 379 ft 6 kts 229°
2026-05-04 20:58 30.10277 31.39685 379 ft 6 kts 229°
2026-05-04 20:58 30.10251 31.39651 379 ft 6 kts 229°
2026-05-04 20:58 30.10226 31.39617 379 ft 6 kts 229°
2026-05-04 20:59 30.10198 31.39586 379 ft 6 kts 218°
2026-05-04 20:59 30.10161 31.39573 379 ft 6 kts 174°
2026-05-04 20:59 30.10127 31.39597 379 ft 6 kts 141°
2026-05-04 20:59 30.10095 31.39628 379 ft 6 kts 140°
2026-05-04 21:00 30.10069 31.39652 379 ft 2 kts 140°
2026-05-04 21:00 30.10058 31.39663 379 ft 2 kts 140°
2026-05-04 21:00 30.10047 31.39673 379 ft 2 kts 138°
2026-05-04 21:00 30.10047 31.39674 379 ft 0 kts 137°
2026-05-04 21:02 30.10043 31.39678 379 ft 2 kts 135°
2026-05-04 21:02 30.10022 31.39710 379 ft 7 kts 121°
2026-05-04 21:02 30.10008 31.39757 379 ft 6 kts 102°
2026-05-04 21:03 30.10001 31.39807 378 ft 6 kts 98°
2026-05-04 21:03 30.10008 31.39863 377 ft 8 kts 68°
2026-05-04 21:03 30.10043 31.39922 378 ft 10 kts 51°
2026-05-04 21:03 30.10236 31.40183 379 ft 88 kts 49°
2026-05-04 21:04 30.10854 31.41001 384 ft 180 kts 48°
2026-05-04 21:04 30.11803 31.42241 760 ft 216 kts 48°
2026-05-04 21:04 30.12825 31.43489 1445 ft 222 kts 36°
2026-05-04 21:04 30.14270 31.44072 2676 ft 232 kts
2026-05-04 21:05 30.15851 31.43586 3084 ft 247 kts 323°
2026-05-04 21:05 30.16898 31.42006 3554 ft 256 kts 286°
2026-05-04 21:05 30.17011 31.39952 4197 ft 259 kts 266°
2026-05-04 21:05 30.17082 31.37845 4830 ft 267 kts 282°
2026-05-04 21:06 30.17753 31.35850 5631 ft 268 kts 304°
2026-05-04 21:06 30.19036 31.34280 6411 ft 270 kts 320°
2026-05-04 21:06 30.20487 31.32878 7145 ft 274 kts 319°
2026-05-04 21:06 30.21937 31.31435 7915 ft 277 kts 318°
2026-05-04 21:07 30.23383 31.29943 8641 ft 280 kts 317°
2026-05-04 21:07 30.24825 31.28410 9358 ft 283 kts 316°
2026-05-04 21:07 30.26265 31.26842 10082 ft 286 kts 316°
2026-05-04 21:07 30.27733 31.25214 10587 ft 299 kts 316°
2026-05-04 21:08 30.29281 31.23476 10756 ft 323 kts 315°
2026-05-04 21:08 30.30944 31.21591 10954 ft 346 kts 315°
2026-05-04 21:08 30.32707 31.19577 11244 ft 365 kts 315°
2026-05-04 21:08 30.34536 31.17478 11848 ft 375 kts 315°
2026-05-04 21:09 30.36400 31.15331 12563 ft 381 kts 315°
2026-05-04 21:09 30.37647 31.13893 13078 ft 383 kts 315°
2026-05-04 21:09 30.39541 31.11704 13887 ft 386 kts 315°
2026-05-04 21:09 30.41449 31.09495 14646 ft 390 kts 315°
2026-05-04 21:10 30.43382 31.07256 15360 ft 395 kts 315°
2026-05-04 21:10 30.45332 31.04996 16063 ft 399 kts 315°
2026-05-04 21:10 30.47950 31.01959 16968 ft 404 kts 315°
2026-05-04 21:10 30.49295 31.00398 17441 ft 407 kts 315°
2026-05-04 21:11 30.51307 30.98061 18107 ft 411 kts 315°
2026-05-04 21:11 30.53337 30.95703 18755 ft 415 kts 315°
2026-05-04 21:11 30.55385 30.93322 19381 ft 419 kts 315°
2026-05-04 21:11 30.57454 30.90914 19997 ft 423 kts 315°
2026-05-04 21:12 30.59543 30.88483 20601 ft 427 kts 315°
2026-05-04 21:12 30.61645 30.86034 21164 ft 431 kts 315°
2026-05-04 21:12 30.63769 30.83557 21743 ft 434 kts 315°
2026-05-04 21:12 30.65911 30.81059 22298 ft 438 kts 315°
2026-05-04 21:13 30.68070 30.78538 22832 ft 442 kts 314°
2026-05-04 21:13 30.70242 30.76002 23352 ft 445 kts 314°
2026-05-04 21:13 30.72432 30.73442 23854 ft 448 kts 314°
2026-05-04 21:13 30.74637 30.70863 24345 ft 452 kts 314°
2026-05-04 21:14 30.76834 30.68292 24816 ft 455 kts 314°
2026-05-04 21:14 30.79070 30.65672 25269 ft 458 kts 314°
2026-05-04 21:14 30.81321 30.63033 25718 ft 461 kts 314°
2026-05-04 21:14 30.83588 30.60375 26149 ft 464 kts 314°
2026-05-04 21:15 30.85872 30.57693 26570 ft 467 kts 314°
2026-05-04 21:15 30.88166 30.54999 26982 ft 470 kts 314°
2026-05-04 21:15 30.90472 30.52288 27362 ft 473 kts 314°
2026-05-04 21:15 30.92792 30.49558 27753 ft 476 kts 314°
2026-05-04 21:16 30.95126 30.46810 28114 ft 478 kts 314°
2026-05-04 21:16 30.97476 30.44042 28462 ft 481 kts 314°
2026-05-04 21:16 30.99828 30.41269 28778 ft 483 kts 314°
2026-05-04 21:16 31.02201 30.38469 29102 ft 486 kts 314°
2026-05-04 21:17 31.04577 30.35664 29402 ft 488 kts 314°
2026-05-04 21:17 31.06879 30.32739 29707 ft 489 kts 308°
2026-05-04 21:17 31.08797 30.29471 30077 ft 488 kts 300°
2026-05-04 21:17 31.10357 30.25970 30503 ft 486 kts 294°
2026-05-04 21:18 31.11518 30.22272 30903 ft 485 kts 287°
2026-05-04 21:18 31.12504 30.18515 31263 ft 484 kts 287°
2026-05-04 21:18 31.13478 30.14752 31598 ft 484 kts 287°
2026-05-04 21:18 31.14469 30.11002 31912 ft 484 kts 287°
2026-05-04 21:19 31.16502 30.03524 32000 ft 487 kts 288°
2026-05-04 21:19 31.18843 29.96142 32004 ft 482 kts 296°
2026-05-04 21:20 31.22237 29.89405 32004 ft 482 kts 306°
2026-05-04 21:20 31.26219 29.83101 32004 ft 482 kts 306°
2026-05-04 21:21 31.30216 29.76797 32002 ft 483 kts 306°
2026-05-04 21:21 31.34188 29.70449 32002 ft 484 kts 306°
2026-05-04 21:22 31.38146 29.64082 32002 ft 484 kts 306°
2026-05-04 21:22 31.42103 29.57700 32001 ft 484 kts 306°
2026-05-04 21:23 31.46060 29.51313 32001 ft 484 kts 306°
2026-05-04 21:23 31.50011 29.44925 32001 ft 484 kts 306°
2026-05-04 21:24 31.53956 29.38536 32001 ft 484 kts 306°
2026-05-04 21:24 31.57897 29.32145 32001 ft 483 kts 306°
2026-05-04 21:25 31.61822 29.25742 32001 ft 483 kts 305°
2026-05-04 21:25 31.65728 29.19327 32001 ft 483 kts 305°
2026-05-04 21:26 31.69638 29.12899 32001 ft 483 kts 305°
2026-05-04 21:26 31.73543 29.06475 32001 ft 483 kts 305°
2026-05-04 21:27 31.77458 29.00052 32001 ft 483 kts 305°
2026-05-04 21:27 31.81375 28.93626 32002 ft 483 kts 305°
2026-05-04 21:28 31.85286 28.87197 32002 ft 483 kts 305°
2026-05-04 21:28 31.89167 28.80802 32001 ft 483 kts 305°
2026-05-04 21:29 31.93070 28.74358 32001 ft 483 kts 305°
2026-05-04 21:29 31.96969 28.67910 32001 ft 483 kts 305°
2026-05-04 21:30 32.00872 28.61447 32001 ft 483 kts 305°
2026-05-04 21:30 32.04765 28.54988 32001 ft 483 kts 305°
2026-05-04 21:31 32.10598 28.45289 32001 ft 483 kts 305°
2026-05-04 21:32 32.14487 28.38811 32001 ft 483 kts 305°
2026-05-04 21:32 32.18366 28.32335 32001 ft 483 kts 305°
2026-05-04 21:33 32.22246 28.25849 32001 ft 483 kts 305°
2026-05-04 21:33 32.26119 28.19364 32001 ft 483 kts 305°
2026-05-04 21:34 32.29996 28.12859 32001 ft 483 kts 305°
2026-05-04 21:34 32.33840 28.06400 32001 ft 483 kts 305°
2026-05-04 21:35 32.37709 27.99887 32001 ft 483 kts 305°
2026-05-04 21:35 32.41570 27.93377 32001 ft 483 kts 305°
2026-05-04 21:36 32.45432 27.86852 32001 ft 483 kts 305°
2026-05-04 21:36 32.49285 27.80333 32001 ft 483 kts 305°
2026-05-04 21:37 32.53135 27.73807 32001 ft 483 kts 304°
2026-05-04 21:37 32.56984 27.67271 32001 ft 483 kts 304°
2026-05-04 21:38 32.60832 27.60726 32001 ft 483 kts 304°
2026-05-04 21:38 32.64675 27.54178 32001 ft 483 kts 304°
2026-05-04 21:39 32.68512 27.47628 32001 ft 483 kts 304°
2026-05-04 21:39 32.72344 27.41077 32001 ft 483 kts 304°
2026-05-04 21:40 32.76153 27.34555 32001 ft 483 kts 304°
2026-05-04 21:40 32.79979 27.27990 32001 ft 483 kts 304°
2026-05-04 21:41 32.83805 27.21414 32001 ft 483 kts 304°
2026-05-04 21:41 32.87626 27.14834 32001 ft 483 kts 304°
2026-05-04 21:42 32.91444 27.08247 32001 ft 483 kts 304°
2026-05-04 21:42 32.95259 27.01654 32001 ft 483 kts 304°
2026-05-04 21:43 32.99066 26.95062 32001 ft 483 kts 304°
2026-05-04 21:43 33.02866 26.88445 32001 ft 483 kts 304°
2026-05-04 21:44 33.06653 26.81828 32001 ft 483 kts 304°
2026-05-04 21:44 33.10440 26.75204 32001 ft 483 kts 304°
2026-05-04 21:45 33.14226 26.68572 32001 ft 483 kts 304°
2026-05-04 21:45 33.18003 26.61942 32001 ft 483 kts 304°
2026-05-04 21:46 33.21782 26.55298 32001 ft 483 kts 304°
2026-05-04 21:46 33.25556 26.48652 32001 ft 483 kts 304°
2026-05-04 21:47 33.29326 26.41999 32001 ft 483 kts 304°
2026-05-04 21:47 33.33092 26.35343 32001 ft 483 kts 304°
2026-05-04 21:48 33.36857 26.28676 32001 ft 483 kts 304°
2026-05-04 21:48 33.40614 26.22010 32001 ft 483 kts 304°
2026-05-04 21:49 33.44365 26.15344 32001 ft 483 kts 304°
2026-05-04 21:49 33.48120 26.08657 32001 ft 483 kts 304°
2026-05-04 21:50 33.51865 26.01977 32001 ft 483 kts 303°
2026-05-04 21:50 33.55595 25.95311 32001 ft 483 kts 303°
2026-05-04 21:51 33.59336 25.88613 32001 ft 483 kts 303°
2026-05-04 21:51 33.63075 25.81907 32001 ft 483 kts 303°
2026-05-04 21:52 33.66809 25.75197 32001 ft 483 kts 303°
2026-05-04 21:52 33.70542 25.68479 32001 ft 483 kts 303°
2026-05-04 21:53 33.74268 25.61758 32001 ft 483 kts 303°
2026-05-04 21:53 33.77990 25.55032 32001 ft 483 kts 303°
2026-05-04 21:54 33.81713 25.48292 32001 ft 483 kts 303°
2026-05-04 21:54 33.85428 25.41555 32001 ft 483 kts 303°
2026-05-04 21:55 33.89136 25.34816 32001 ft 483 kts 303°
2026-05-04 21:55 33.92848 25.28059 32001 ft 483 kts 303°
2026-05-04 21:56 33.96554 25.21300 32001 ft 483 kts 303°
2026-05-04 21:56 34.00966 25.15272 32013 ft 482 kts 321°
2026-05-04 21:57 34.05692 25.11736 31996 ft 482 kts 335°
2026-05-04 21:57 34.11855 25.08510 32001 ft 484 kts 336°
2026-05-04 21:58 34.18050 25.05299 32003 ft 485 kts 336°
2026-05-04 21:58 34.24232 25.02027 32001 ft 485 kts 336°
2026-05-04 21:59 34.30407 24.98714 32001 ft 486 kts 336°
2026-05-04 21:59 34.36581 24.95385 32001 ft 485 kts 335°
2026-05-04 22:00 34.42745 24.92058 32001 ft 485 kts 335°
2026-05-04 22:00 34.48903 24.88731 32001 ft 485 kts 335°
2026-05-04 22:01 34.55058 24.85401 32001 ft 484 kts 335°
2026-05-04 22:01 34.61206 24.82070 32001 ft 484 kts 335°
2026-05-04 22:02 34.67359 24.78731 32001 ft 484 kts 335°
2026-05-04 22:02 34.73503 24.75391 32001 ft 484 kts 335°
2026-05-04 22:03 34.79647 24.72045 32001 ft 484 kts 335°
2026-05-04 22:03 34.85786 24.68696 32001 ft 484 kts 335°
2026-05-04 22:04 34.91895 24.65359 32001 ft 484 kts 335°
2026-05-04 22:04 34.98041 24.61996 32001 ft 484 kts 335°
2026-05-04 22:05 35.04187 24.58627 32002 ft 484 kts 335°
2026-05-04 22:05 35.10333 24.55253 32001 ft 484 kts 335°
2026-05-04 22:06 35.16484 24.51870 32000 ft 485 kts 335°
2026-05-04 22:06 35.22643 24.48477 32008 ft 486 kts 335°
2026-05-04 22:07 35.28813 24.45073 32001 ft 487 kts 335°
2026-05-04 22:07 35.34991 24.41658 32004 ft 488 kts 335°
2026-05-04 22:08 35.41175 24.38234 32000 ft 487 kts 335°
2026-05-04 22:08 35.47376 24.34795 31999 ft 485 kts 335°
2026-05-04 22:09 35.53479 24.31405 32000 ft 484 kts 335°
2026-05-04 22:09 35.59648 24.27972 32001 ft 483 kts 335°
2026-05-04 22:10 35.65730 24.24583 32001 ft 483 kts 335°
2026-05-04 22:10 35.71850 24.21165 32002 ft 483 kts 335°
2026-05-04 22:11 35.77964 24.17746 32002 ft 483 kts 335°
2026-05-04 22:11 35.84093 24.14312 32002 ft 484 kts 335°
2026-05-04 22:12 35.90223 24.10872 32002 ft 484 kts 335°
2026-05-04 22:12 35.96355 24.07425 32002 ft 484 kts 335°
2026-05-04 22:13 36.02487 24.03972 32001 ft 485 kts 335°
2026-05-04 22:13 36.08621 24.00512 32001 ft 485 kts 335°
2026-05-04 22:14 36.14755 23.97046 32001 ft 485 kts 335°
2026-05-04 22:14 36.20886 23.93576 32001 ft 484 kts 335°
2026-05-04 22:15 36.27012 23.90102 32001 ft 484 kts 335°
2026-05-04 22:15 36.33138 23.86623 32001 ft 484 kts 335°
2026-05-04 22:16 36.39266 23.83135 32001 ft 484 kts 335°
2026-05-04 22:16 36.45384 23.79649 32001 ft 484 kts 335°
2026-05-04 22:17 36.51508 23.76152 32001 ft 484 kts 335°
2026-05-04 22:17 36.57625 23.72653 32001 ft 484 kts 335°
2026-05-04 22:18 36.63743 23.69147 32001 ft 484 kts 335°
2026-05-04 22:18 36.69649 23.65758 32001 ft 484 kts 335°
2026-05-04 22:19 36.75814 23.62213 32002 ft 484 kts 335°
2026-05-04 22:19 36.81930 23.58691 32001 ft 484 kts 335°
2026-05-04 22:20 36.88051 23.55158 32010 ft 485 kts 335°
2026-05-04 22:20 36.91127 23.53382 32185 ft 488 kts 335°
2026-05-04 22:20 36.94205 23.51601 32536 ft 486 kts 335°
2026-05-04 22:20 36.97266 23.49830 32930 ft 484 kts 335°
2026-05-04 22:21 37.00288 23.48079 33300 ft 482 kts 335°
2026-05-04 22:21 37.03327 23.46317 33646 ft 480 kts 335°
2026-05-04 22:21 37.06354 23.44560 33914 ft 480 kts 335°
2026-05-04 22:22 37.12448 23.41019 33993 ft 483 kts 335°
2026-05-04 22:22 37.18523 23.37483 33997 ft 480 kts 335°
2026-05-04 22:23 37.24557 23.33963 34002 ft 478 kts 335°
2026-05-04 22:23 37.30582 23.30443 34001 ft 477 kts 335°
2026-05-04 22:24 37.36598 23.26923 34003 ft 478 kts 335°
2026-05-04 22:24 37.42628 23.23387 33999 ft 479 kts 335°
2026-05-04 22:25 37.48681 23.19832 33998 ft 482 kts 335°
2026-05-04 22:25 37.54777 23.16244 34011 ft 484 kts 335°
2026-05-04 22:26 37.60884 23.12644 34005 ft 486 kts 335°
2026-05-04 22:26 37.67010 23.09026 34000 ft 486 kts 334°
2026-05-04 22:27 37.73123 23.05409 33997 ft 484 kts 334°
2026-05-04 22:27 37.79207 23.01802 33999 ft 484 kts 334°
2026-05-04 22:28 37.85294 22.98188 34005 ft 483 kts 334°
2026-05-04 22:28 37.91233 22.94265 33996 ft 481 kts 325°
2026-05-04 22:29 37.96277 22.88736 34003 ft 479 kts 311°
2026-05-04 22:29 38.00495 22.82220 34003 ft 478 kts 308°
2026-05-04 22:30 38.04654 22.75631 34002 ft 478 kts 308°
2026-05-04 22:30 38.08833 22.69063 34002 ft 478 kts 309°
2026-05-04 22:31 38.13039 22.62494 34002 ft 479 kts 309°
2026-05-04 22:31 38.17246 22.55933 34002 ft 479 kts 309°
2026-05-04 22:32 38.21456 22.49353 34002 ft 480 kts 309°
2026-05-04 22:32 38.25658 22.42768 34002 ft 480 kts 309°
2026-05-04 22:33 38.29867 22.36160 34001 ft 480 kts 309°
2026-05-04 22:33 38.34070 22.29545 34001 ft 480 kts 309°
2026-05-04 22:34 38.38254 22.22947 34001 ft 481 kts 309°
2026-05-04 22:34 38.42465 22.16294 33996 ft 483 kts 309°
2026-05-04 22:35 38.46504 22.09899 33995 ft 485 kts 308°
2026-05-04 22:35 38.50710 22.03226 34008 ft 486 kts 308°
2026-05-04 22:36 38.54947 21.96490 34003 ft 486 kts 308°
2026-05-04 22:36 38.59178 21.89750 33999 ft 487 kts 308°
2026-05-04 22:37 38.63419 21.82979 33995 ft 488 kts 308°
2026-05-04 22:37 38.67618 21.76262 33999 ft 487 kts 308°
2026-05-04 22:38 38.71121 21.70647 33997 ft 488 kts 308°
2026-05-04 22:38 38.75343 21.63866 34002 ft 487 kts 308°
2026-05-04 22:39 38.79566 21.57071 33996 ft 487 kts 308°
2026-05-04 22:39 38.84466 21.49166 34004 ft 486 kts 308°
2026-05-04 22:40 38.87984 21.43480 33999 ft 484 kts 308°
2026-05-04 22:40 38.92159 21.36718 34000 ft 482 kts 308°
2026-05-04 22:41 38.96309 21.29983 33996 ft 480 kts 308°
2026-05-04 22:41 39.00456 21.23237 34003 ft 480 kts 308°
2026-05-04 22:42 39.04574 21.16526 34004 ft 481 kts 308°
2026-05-04 22:42 39.08719 21.09755 34010 ft 481 kts 308°
2026-05-04 22:43 39.12885 21.02937 34004 ft 481 kts 308°
2026-05-04 22:43 39.17020 20.96155 33999 ft 481 kts 308°
2026-05-04 22:44 39.21118 20.89419 34000 ft 480 kts 308°
2026-05-04 22:44 39.25236 20.82635 34001 ft 480 kts 308°
2026-05-04 22:45 39.29346 20.75850 34002 ft 480 kts 308°